Regional Weather Roundup
Issued by NWS

Home | Current Version | Previous Version | Graphics & Text | Print | Product List | Glossary On
Versions: 1 2 3 4 5 6 7 8 9 10 11 12 13 14 15 16 17 18 19 20 21 22 23 24 25 26 27 28 29 30 31 32 33 34 35 36 37 38 39 40 41 42 43 44 45 46 47 48 49 50
173
ASUS44 KJAN 291510
RWRMS

MISSISSIPPI HOURLY WEATHER ROUNDUP
NATIONAL WEATHER SERVICE JACKSON MS
1000 AM CDT SUN MAR 29 2015

NOTE: "FAIR: INDICATES FEW OR NO CLOUDS BELOW 12,000 FEET WITH NO
SIGNIFICANT WEATHER AND/OR OBSTRUCTIONS TO VISIBILITY.

MSZ001>002-007>008-010>013-018>021-025>028-034>036-291600-
NORTHWEST MISSISSIPPI

CITY           SKY/WX    TMP DP  RH WIND       PRES   REMARKS
CLARKSDALE     CLOUDY    48  36  61 SE14G20   30.26S
CLEVELAND      CLOUDY    50  38  62 S15G21    30.25S
GREENWOOD      CLOUDY    52  32  46 S13       30.27S
GREENVILLE     CLOUDY    51  36  56 SE13      30.24S
OLIVE BRANCH   CLOUDY    43  28  56 S12       30.26R
OXFORD         CLOUDY    45  27  49 SE10G22   30.30R
TUNICA         CLOUDY    45  32  61 SE17      30.26F
$$

MSZ003>006-009-014>017-022>024-029>033-037>039-291600-
NORTHEAST MISSISSIPPI

CITY           SKY/WX    TMP DP  RH WIND       PRES   REMARKS
COLUMBUS AFB   CLOUDY    46  27  46 SE10      30.34S
CORINTH        FAIR      48  21  34 SE15      30.30S
GOLDN TRIANGLE CLOUDY    46  27  46 SE12      30.34R
STARKVILLE     CLOUDY    46  32  57 SE10      30.33S
TUPELO         CLOUDY    46  24  42 S13       30.32S
$$

MSZ040-058-291600-
CENTRAL MISSISSIPPI

CITY           SKY/WX    TMP DP  RH WIND       PRES   REMARKS
JACKSON INTL   PTSUNNY   53  34  48 SE12      30.31S
JACKSON HAWKNS CLOUDY    52  33  48 SE13      30.30S
MERIDIAN KEY   PTSUNNY   53  30  41 SE8       30.34S
MERIDIAN NAS   NOT AVBL
RAYMOND        CLOUDY    54  48  82 SE12      30.29S
VICKSBURG      CLOUDY    54  39  57 SE9       30.28R
$$

MSZ059>079-291600-
SOUTH MISSISSIPPI

CITY           SKY/WX    TMP DP  RH WIND       PRES   REMARKS
BROOKHAVEN     FAIR      55  43  62 SE10      30.31S
HATTIESBURG    SUNNY     56  36  47 SE8       30.34S
MCCOMB         SUNNY     56  43  61 SE12      30.30S
NATCHEZ        SUNNY     61  46  59 S12G18    30.27S
PINE BELT      SUNNY     54  34  47 SE9       30.35R
$$

MSZ080>082-291600-
COASTAL MISSISSIPPI

CITY           SKY/WX    TMP DP  RH WIND       PRES   REMARKS
BAY ST LOUIS   SUNNY     63  48  59 E16       30.32S
BILOXI         SUNNY     61  48  63 SE14G21   30.33R
PASCAGOULA     SUNNY     60  42  51 SE10      30.35S
GULFPORT       SUNNY     60  49  66 E16       30.33R
$$



USA.gov is the U.S. government's official web portal to all federal, state and local government web resources and services.